Weather in Polyanskoye

Russia / Kursk Oblast     51°44′59″N   35°58′41″E
temp.,
°C
wind,
m/s
gust,
m/s
humid.,
%
clouds,
%
prec.,
mm/h
press.,
hPa
HPBL,
m
4 march, thu
thu400:00−2w5129318 0.0 1018369
03:00−2wsw5119311 0.0 1017313
06:00−4wsw511920 0.0 1015267
09:00−3sw614890 0.0 1012421
12:000wsw714920 0.0 1010567
15:000sw71210014 0.0 1007535
18:00+1wsw71297100 0.0 1005656
21:00+1w41198100 0.4 1004459
5 march, fri
fri500:00+1w51098100 0.3 1005443
03:000wnw4996100 0.4 1006565
06:00−2wnw4994100 0.1 1008527
09:00−2nw4693100 0.1 1010406
12:00−1n238742 0.0 1011403
15:00−1nw228449 0.0 1012515
18:00−2wnw1190100 0.0 101321
21:00−3wnw1291100 0.0 101521
6 march, sat
sat600:00−4nnw2291100 0.0 101679
03:00−5nnw2389100 0.0 1016110
06:00−6nw2391100 0.0 1016127
09:00−5nw4892100 0.1 1017460
12:00−4nw588396 0.0 1017857
15:00−4nw7108098 0.3 10171202
18:00−5nw6118295 0.2 1018941
21:00−7nw5118270 0.3 1021519
7 march, sun
sun700:00−8wnw38880 0.0 1022283
03:00−8wsw49900 0.0 1021273
06:00−7wsw5128713 0.0 1019385
09:00−5sw8157657 0.0 1017787
12:00−3wsw101772100 0.0 10131127
15:00−2wsw111890100 0.4 10091316
18:00−1wsw81782100 0.3 10081140
21:00−1wsw8168193 0.3 1008899
8 march, mon
mon800:00−2wsw7148787 0.2 1007852
03:00−2wsw7149294 0.3 1005914
06:00−2wsw81590100 0.2 10041030
09:00−3wnw71281100 0.8 10061182
12:00−5nw696367 0.1 1009923
15:00−4wnw466534 0.1 1011779
18:00−6wnw24770 0.0 1012291
21:00−7nw12830 0.0 101438